When you browse on this site, cookies collect data to enhance your experience and personalize the content and advertising you see.
Visit our Privacy Policy to learn more. By continuing to use the site, you agree to this use of cookies and data.
  • In Portugal
  • List of Countries
  • For 7 days
  • Water Temperature
  • Satellite Maps
  • Weather Map
  • Weather Widgets
  • user-avatar
    Login

    Hourly Weather Boskino

    Today, 20 May, Monday

    Time Temperature Precipitation Wind Pressure Humidity
    00:00 +14°C° 0 mm 2 mps 755 mmHg 78%
    01:00 +14°C° 0 mm 2 mps 756 mmHg 81%
    02:00 +13°C° 0 mm 1 mps 756 mmHg 83%
    03:00 +14°C° 0 mm 1 mps 756 mmHg 84%
    04:00 +14°C° 0 mm 1 mps 756 mmHg 85%
    05:00 +14°C° 0 mm 1 mps 756 mmHg 86%
    06:00 +16°C° 0 mm 2 mps 756 mmHg 79%
    07:00 +18°C° 0 mm 2 mps 756 mmHg 72%
    08:00 +21°C° 0 mm 2 mps 756 mmHg 65%
    09:00 +22°C° 0 mm 3 mps 756 mmHg 58%
    10:00 +25°C° 0 mm 3 mps 756 mmHg 50%
    11:00 +26°C° 0 mm 4 mps 756 mmHg 43%
    12:00 +26°C° 0 mm 4 mps 756 mmHg 42%
    13:00 +27°C° 0 mm 4 mps 755 mmHg 40%
    14:00 +27°C° 0 mm 4 mps 755 mmHg 39%
    15:00 +27°C° 0 mm 4 mps 755 mmHg 42%
    16:00 +26°C° 0 mm 3 mps 755 mmHg 45%
    17:00 +26°C° 0 mm 3 mps 754 mmHg 48%
    18:00 +24°C° 0 mm 3 mps 754 mmHg 56%
    19:00 +21°C° 0 mm 2 mps 754 mmHg 63%
    20:00 +18°C° 0 mm 2 mps 754 mmHg 71%
    21:00 +18°C° 0 mm 2 mps 754 mmHg 72%
    22:00 +17°C° 0 mm 2 mps 755 mmHg 73%
    23:00 +16°C° 0 mm 2 mps 755 mmHg 75%

    Tomorrow, 21 May, Tuesday

    Time Temperature Precipitation Wind Pressure Humidity
    00:00 +16°C° 0 mm 2 mps 755 mmHg 77%
    01:00 +15°C° 0 mm 2 mps 755 mmHg 78%
    02:00 +15°C° 0 mm 2 mps 755 mmHg 80%
    03:00 +15°C° 0 mm 2 mps 755 mmHg 81%
    04:00 +15°C° 0 mm 2 mps 755 mmHg 82%
    05:00 +15°C° 0 mm 2 mps 754 mmHg 82%
    06:00 +16°C° 0 mm 3 mps 754 mmHg 77%
    07:00 +18°C° 0 mm 3 mps 754 mmHg 71%
    08:00 +20°C° 0 mm 3 mps 754 mmHg 65%
    09:00 +21°C° 0 mm 3 mps 754 mmHg 61%
    10:00 +22°C° 0 mm 3 mps 754 mmHg 56%
    11:00 +24°C° 0 mm 3 mps 753 mmHg 52%
    12:00 +25°C° 0 mm 3 mps 753 mmHg 51%
    13:00 +26°C° 0 mm 3 mps 753 mmHg 50%
    14:00 +26°C° 0 mm 3 mps 752 mmHg 49%
    15:00 +26°C° 0 mm 3 mps 752 mmHg 52%
    16:00 +26°C° 0 mm 3 mps 752 mmHg 56%
    17:00 +25°C° 0 mm 2 mps 751 mmHg 59%
    18:00 +24°C° 0 mm 2 mps 751 mmHg 67%
    19:00 +21°C° 0 mm 2 mps 751 mmHg 75%
    20:00 +19°C° 0 mm 2 mps 751 mmHg 82%
    21:00 +18°C° 0 mm 2 mps 751 mmHg 84%
    22:00 +18°C° 0 mm 2 mps 751 mmHg 86%
    23:00 +17°C° 0 mm 2 mps 751 mmHg 87%

    Day after tomorrow, 22 May, Wednesday

    Time Temperature Precipitation Wind Pressure Humidity
    00:00 +16°C° 0 mm 2 mps 751 mmHg 89%
    01:00 +16°C° 0 mm 2 mps 751 mmHg 91%
    02:00 +15°C° 0 mm 2 mps 750 mmHg 93%
    03:00 +15°C° 0 mm 2 mps 750 mmHg 92%
    04:00 +15°C° 0 mm 1 mps 750 mmHg 92%
    05:00 +16°C° 0 mm 1 mps 750 mmHg 91%
    06:00 +19°C° 0 mm 1 mps 750 mmHg 84%
    07:00 +20°C° 0 mm 2 mps 750 mmHg 77%
    08:00 +23°C° 0 mm 2 mps 749 mmHg 70%
    09:00 +24°C° 0 mm 2 mps 749 mmHg 65%
    10:00 +25°C° 0 mm 2 mps 749 mmHg 60%
    11:00 +26°C° 0 mm 2 mps 749 mmHg 54%
    12:00 +26°C° 0 mm 2 mps 748 mmHg 53%
    13:00 +27°C° 0 mm 2 mps 748 mmHg 51%
    14:00 +27°C° 0 mm 2 mps 748 mmHg 50%
    15:00 +27°C° 0 mm 1 mps 747 mmHg 52%
    16:00 +27°C° 0 mm 1 mps 747 mmHg 55%
    17:00 +27°C° 0 mm 1 mps 747 mmHg 57%
    18:00 +25°C° 0.3 mm 1 mps 747 mmHg 65%
    19:00 +23°C° 0.3 mm 1 mps 747 mmHg 72%
    20:00 +21°C° 0.3 mm 1 mps 747 mmHg 79%
    21:00 +18°C° 0.2 mm 0 mps 747 mmHg 82%
    22:00 +17°C° 0.2 mm 0 mps 747 mmHg 84%
    23:00 +17°C° 0.2 mm 0 mps 747 mmHg 87%

    23 May, Thursday

    Time Temperature Precipitation Wind Pressure Humidity
    00:00 +16°C° 0.7 mm 0 mps 747 mmHg 89%
    01:00 +18°C° 0.7 mm 1 mps 747 mmHg 91%
    02:00 +18°C° 0.7 mm 1 mps 747 mmHg 93%
    03:00 +18°C° 0.3 mm 1 mps 747 mmHg 94%
    04:00 +18°C° 0.3 mm 1 mps 746 mmHg 95%
    05:00 +18°C° 0.3 mm 1 mps 746 mmHg 96%
    06:00 +17°C° 0.3 mm 2 mps 747 mmHg 95%
    07:00 +17°C° 0.3 mm 2 mps 747 mmHg 94%
    08:00 +18°C° 0.3 mm 3 mps 747 mmHg 92%
    09:00 +18°C° 0 mm 3 mps 747 mmHg 91%
    10:00 +18°C° 0 mm 3 mps 747 mmHg 89%
    11:00 +18°C° 0 mm 3 mps 747 mmHg 87%
    12:00 +18°C° 0.1 mm 3 mps 747 mmHg 86%
    13:00 +18°C° 0.1 mm 3 mps 747 mmHg 85%
    14:00 +18°C° 0.1 mm 3 mps 747 mmHg 84%
    15:00 +18°C° 0.1 mm 3 mps 747 mmHg 83%
    16:00 +18°C° 0.1 mm 3 mps 747 mmHg 81%
    17:00 +18°C° 0.1 mm 3 mps 747 mmHg 80%
    18:00 +18°C° 0 mm 2 mps 747 mmHg 83%
    19:00 +17°C° 0 mm 2 mps 747 mmHg 87%
    20:00 +16°C° 0 mm 1 mps 747 mmHg 90%
    21:00 +16°C° 0 mm 1 mps 747 mmHg 92%
    22:00 +15°C° 0 mm 1 mps 747 mmHg 94%
    23:00 +15°C° 0 mm 1 mps 747 mmHg 96%

    24 May, Friday

    Time Temperature Precipitation Wind Pressure Humidity
    00:00 +14°C° 0 mm 1 mps 746 mmHg 97%
    01:00 +14°C° 0 mm 1 mps 746 mmHg 97%
    02:00 +13°C° 0 mm 1 mps 746 mmHg 98%
    03:00 +14°C° 0 mm 1 mps 746 mmHg 98%
    04:00 +14°C° 0 mm 1 mps 746 mmHg 97%
    05:00 +15°C° 0 mm 1 mps 746 mmHg 96%
    06:00 +15°C° 0.4 mm 1 mps 746 mmHg 95%
    07:00 +16°C° 0.4 mm 1 mps 746 mmHg 94%
    08:00 +18°C° 0.4 mm 1 mps 746 mmHg 93%
    09:00 +19°C° 0.4 mm 1 mps 746 mmHg 91%
    10:00 +19°C° 0.4 mm 1 mps 745 mmHg 89%
    11:00 +20°C° 0.4 mm 1 mps 745 mmHg 87%
    12:00 +20°C° 1.2 mm 1 mps 745 mmHg 88%
    13:00 +20°C° 1.2 mm 1 mps 745 mmHg 88%
    14:00 +19°C° 1.2 mm 2 mps 745 mmHg 89%
    15:00 +19°C° 0.9 mm 2 mps 745 mmHg 90%
    16:00 +18°C° 0.9 mm 2 mps 745 mmHg 91%
    17:00 +18°C° 0.9 mm 2 mps 744 mmHg 92%
    18:00 +17°C° 0.8 mm 2 mps 744 mmHg 94%
    19:00 +16°C° 0.8 mm 2 mps 744 mmHg 95%
    20:00 +15°C° 0.8 mm 2 mps 744 mmHg 97%
    21:00 +14°C° 0 mm 1 mps 745 mmHg 97%
    22:00 +13°C° 0 mm 1 mps 745 mmHg 98%
    23:00 +12°C° 0 mm 1 mps 745 mmHg 98%

    25 May, Saturday

    Time Temperature Precipitation Wind Pressure Humidity
    00:00 +12°C° 0 mm 1 mps 745 mmHg 98%
    01:00 +12°C° 0 mm 1 mps 745 mmHg 99%
    02:00 +11°C° 0 mm 1 mps 745 mmHg 99%
    03:00 +11°C° 0 mm 1 mps 745 mmHg 98%
    04:00 +11°C° 0 mm 1 mps 745 mmHg 98%
    05:00 +10°C° 0 mm 2 mps 745 mmHg 97%
    06:00 +12°C° 0 mm 2 mps 745 mmHg 92%
    07:00 +13°C° 0 mm 2 mps 745 mmHg 86%
    08:00 +15°C° 0 mm 2 mps 745 mmHg 80%
    09:00 +16°C° 0 mm 3 mps 745 mmHg 71%
    10:00 +17°C° 0 mm 3 mps 745 mmHg 63%
    11:00 +18°C° 0 mm 3 mps 745 mmHg 54%
    12:00 +19°C° 0.1 mm 3 mps 744 mmHg 53%
    13:00 +19°C° 0.1 mm 4 mps 744 mmHg 51%
    14:00 +20°C° 0.1 mm 4 mps 744 mmHg 50%
    15:00 +19°C° 0 mm 3 mps 743 mmHg 52%
    16:00 +19°C° 0 mm 3 mps 743 mmHg 54%
    17:00 +19°C° 0 mm 3 mps 743 mmHg 56%
    18:00 +17°C° 0.1 mm 2 mps 743 mmHg 65%
    19:00 +16°C° 0.1 mm 2 mps 743 mmHg 74%
    20:00 +14°C° 0.1 mm 1 mps 743 mmHg 82%
    21:00 +13°C° 0 mm 1 mps 743 mmHg 86%
    22:00 +12°C° 0 mm 2 mps 743 mmHg 90%
    23:00 +9°C° 0 mm 2 mps 743 mmHg 94%
    Show more